Location: Melbourne
(37.8170°S, 144.9670°E)
Time: 20:53:36
(UTC+11:00)

Aureole 2 Rocket - Visible Passes

Search period start: 11 December 2016 00:00
Search period end: 21 December 2016 00:00
Orbit: 332 x 592 km, 73.9° (Epoch: 10 December)

Date Brightness Start Highest point End Pass type
(mag) Time Alt. Az. Time Alt. Az. Time Alt. Az.
11 Dec 4.9 01:53:46 10° S 01:55:31 20° SSE 01:55:31 20° SSE visible
12 Dec 5.4 01:22:17 10° SSE 01:23:23 13° SE 01:23:23 13° SE visible
12 Dec 5.2 02:57:02 10° SW 02:57:14 11° SW 02:57:14 11° SW visible
13 Dec 5.0 02:24:22 10° SSW 02:25:08 15° SSW 02:25:08 15° SSW visible
14 Dec 5.0 01:51:59 10° SSW 01:53:02 18° SSW 01:53:02 18° SSW visible
15 Dec 5.1 01:19:48 10° S 01:20:57 18° S 01:20:57 18° S visible
16 Dec 5.2 00:47:53 10° SSE 00:48:52 15° SSE 00:48:52 15° SSE visible
17 Dec 5.4 00:16:34 10° SE 00:16:48 11° SE 00:16:48 11° SE visible
18 Dec 5.3 01:18:02 10° SSW 01:18:36 14° SSW 01:18:36 14° SSW visible
19 Dec 5.1 00:45:34 10° SSW 00:46:32 18° S 00:46:32 18° S visible
20 Dec 4.9 00:13:20 10° S 00:14:28 18° SSE 00:14:28 18° SSE visible
20 Dec 4.9 23:41:25 10° SSE 23:42:25 14° SE 23:42:25 14° SE visible
